Time,TemperatureF,DewpointF,PressureIn,WindDirection,WindDirectionDegrees,WindSpeedMPH,WindSpeedGustMPH,Humidity,HourlyPrecipIn,Conditions,Clouds,dailyrainin,SolarRadiationWatts/m^2,SoftwareType,DateUTC
2013-08-26 00:11:00,78.0,73.0,-100.00,NNW,336,7.0,11.0,85,0.00,,,0.00,0.000000,,2013-08-26 07:11:00,
2013-08-26 00:21:00,78.0,73.0,-100.00,NNW,336,7.0,11.0,85,0.00,,,0.00,0.000000,,2013-08-26 07:21:00,
2013-08-26 00:32:00,78.0,73.0,-100.00,NNW,336,7.0,11.0,85,0.00,,,0.00,0.000000,,2013-08-26 07:32:00,
2013-08-26 00:42:00,78.0,73.0,-100.00,NNW,336,7.0,11.0,85,0.00,,,0.00,0.000000,,2013-08-26 07:42:00,
2013-08-26 01:11:00,77.0,73.0,-100.00,NNW,328,6.0,10.0,88,0.00,,,0.00,0.000000,,2013-08-26 08:11:00,
2013-08-26 01:22:00,77.0,73.0,-100.00,NNW,328,6.0,10.0,88,0.00,,,0.00,0.000000,,2013-08-26 08:22:00,
2013-08-26 01:31:00,77.0,73.0,-100.00,NNW,328,6.0,10.0,88,0.00,,,0.00,0.000000,,2013-08-26 08:31:00,
2013-08-26 01:42:00,77.0,73.0,-100.00,NNW,328,6.0,10.0,88,0.00,,,0.00,0.000000,,2013-08-26 08:42:00,
2013-08-26 02:11:00,76.0,74.0,-100.00,NNW,327,5.0,8.0,92,0.01,,,0.01,0.000000,,2013-08-26 09:11:00,
2013-08-26 02:21:00,76.0,74.0,-100.00,NNW,327,5.0,8.0,92,0.01,,,0.01,0.000000,,2013-08-26 09:21:00,
2013-08-26 02:33:00,76.0,74.0,-100.00,NNW,327,5.0,8.0,92,0.01,,,0.01,0.000000,,2013-08-26 09:33:00,
2013-08-26 02:43:00,76.0,74.0,-100.00,NNW,327,5.0,8.0,92,0.01,,,0.01,0.000000,,2013-08-26 09:43:00,
2013-08-26 03:12:00,74.0,71.0,-100.00,NW,313,4.0,9.0,91,0.02,,,0.03,0.000000,,2013-08-26 10:12:00,
2013-08-26 03:23:00,74.0,71.0,-100.00,NW,313,4.0,9.0,91,0.02,,,0.03,0.000000,,2013-08-26 10:23:00,
2013-08-26 03:32:00,74.0,71.0,-100.00,NW,313,4.0,9.0,91,0.02,,,0.03,0.000000,,2013-08-26 10:32:00,
2013-08-26 03:42:00,74.0,71.0,-100.00,NW,313,4.0,9.0,91,0.02,,,0.03,0.000000,,2013-08-26 10:42:00,
2013-08-26 04:12:00,73.0,71.0,-100.00,NW,313,4.0,6.0,93,0.03,,,0.06,0.000000,,2013-08-26 11:12:00,
2013-08-26 04:22:00,73.0,71.0,-100.00,NW,313,4.0,6.0,93,0.03,,,0.06,0.000000,,2013-08-26 11:22:00,
2013-08-26 04:33:00,73.0,71.0,-100.00,NW,313,4.0,6.0,93,0.03,,,0.06,0.000000,,2013-08-26 11:33:00,
2013-08-26 04:42:00,73.0,71.0,-100.00,NW,313,4.0,6.0,93,0.03,,,0.06,0.000000,,2013-08-26 11:42:00,
2013-08-26 05:12:00,73.0,71.0,-100.00,North,3,5.0,9.0,94,0.01,,,0.07,0.000000,,2013-08-26 12:12:00,
2013-08-26 05:21:00,73.0,71.0,-100.00,North,3,5.0,9.0,94,0.01,,,0.07,0.000000,,2013-08-26 12:21:00,
2013-08-26 05:32:00,73.0,71.0,-100.00,North,3,5.0,9.0,94,0.01,,,0.07,0.000000,,2013-08-26 12:32:00,
2013-08-26 05:42:00,73.0,71.0,-100.00,North,3,5.0,9.0,94,0.01,,,0.07,0.000000,,2013-08-26 12:42:00,
2013-08-26 06:11:00,73.0,72.0,-100.00,North,8,5.0,7.0,97,0.03,,,0.10,0.000000,,2013-08-26 13:11:00,
2013-08-26 06:21:00,73.0,72.0,-100.00,North,8,5.0,7.0,97,0.03,,,0.10,0.000000,,2013-08-26 13:21:00,
2013-08-26 06:32:00,73.0,72.0,-100.00,North,8,5.0,7.0,97,0.03,,,0.10,0.000000,,2013-08-26 13:32:00,
2013-08-26 06:42:00,73.0,72.0,-100.00,North,8,5.0,7.0,97,0.03,,,0.10,0.000000,,2013-08-26 13:42:00,
2013-08-26 07:11:00,73.0,72.0,-100.00,NNW,334,6.0,10.0,97,0.00,,,0.10,9.000000,,2013-08-26 14:11:00,
2013-08-26 07:22:00,73.0,72.0,-100.00,NNW,334,6.0,10.0,97,0.00,,,0.10,9.000000,,2013-08-26 14:22:00,
2013-08-26 07:32:00,73.0,72.0,-100.00,NNW,334,6.0,10.0,97,0.00,,,0.10,9.000000,,2013-08-26 14:32:00,
2013-08-26 07:42:00,73.0,72.0,-100.00,NNW,334,6.0,10.0,97,0.00,,,0.10,9.000000,,2013-08-26 14:42:00,
2013-08-26 08:12:00,74.0,72.0,-100.00,NNW,346,6.0,10.0,95,0.00,,,0.10,68.000000,,2013-08-26 15:12:00,
2013-08-26 08:22:00,74.0,72.0,-100.00,NNW,346,6.0,10.0,95,0.00,,,0.10,68.000000,,2013-08-26 15:22:00,
2013-08-26 08:35:00,74.0,72.0,-100.00,NNW,346,6.0,10.0,95,0.00,,,0.10,68.000000,,2013-08-26 15:35:00,
2013-08-26 08:47:00,74.0,72.0,-100.00,NNW,346,6.0,10.0,95,0.00,,,0.10,68.000000,,2013-08-26 15:47:00,
2013-08-26 08:48:00,76.0,73.0,-100.00,NW,326,6.0,10.0,91,0.00,,,0.10,167.000000,,2013-08-26 15:48:00,
2013-08-26 09:17:00,76.0,73.0,-100.00,NW,326,6.0,10.0,91,0.00,,,0.10,167.000000,,2013-08-26 16:17:00,
2013-08-26 09:29:00,76.0,73.0,-100.00,NW,326,6.0,10.0,91,0.00,,,0.10,167.000000,,2013-08-26 16:29:00,
2013-08-26 09:36:00,76.0,73.0,-100.00,NW,326,6.0,10.0,91,0.00,,,0.10,167.000000,,2013-08-26 16:36:00,
2013-08-26 10:12:00,80.0,74.0,-100.00,NNW,345,9.0,12.0,82,0.00,,,0.10,408.000000,,2013-08-26 17:12:00,
2013-08-26 10:24:00,80.0,74.0,-100.00,NNW,345,9.0,12.0,82,0.00,,,0.10,408.000000,,2013-08-26 17:24:00,
2013-08-26 10:36:00,80.0,74.0,-100.00,NNW,345,9.0,12.0,82,0.00,,,0.10,408.000000,,2013-08-26 17:36:00,
2013-08-26 10:43:00,80.0,74.0,-100.00,NNW,345,9.0,12.0,82,0.00,,,0.10,408.000000,,2013-08-26 17:43:00,
2013-08-26 11:12:00,83.0,73.0,-100.00,NNW,345,10.0,15.0,72,0.00,,,0.10,815.000000,,2013-08-26 18:12:00,
2013-08-26 11:21:00,83.0,73.0,-100.00,NNW,345,10.0,15.0,72,0.00,,,0.10,815.000000,,2013-08-26 18:21:00,
2013-08-26 11:31:00,83.0,73.0,-100.00,NNW,345,10.0,15.0,72,0.00,,,0.10,815.000000,,2013-08-26 18:31:00,
2013-08-26 11:42:00,83.0,73.0,-100.00,NNW,345,10.0,15.0,72,0.00,,,0.10,815.000000,,2013-08-26 18:42:00,
2013-08-26 12:22:00,87.0,71.0,-100.00,NNW,339,11.0,18.0,59,0.00,,,0.10,923.000000,,2013-08-26 19:22:00,
2013-08-26 12:32:00,87.0,71.0,-100.00,NNW,339,11.0,18.0,59,0.00,,,0.10,923.000000,,2013-08-26 19:32:00,
2013-08-26 12:42:00,87.0,71.0,-100.00,NNW,339,11.0,18.0,59,0.00,,,0.10,923.000000,,2013-08-26 19:42:00,
2013-08-26 13:11:00,88.0,71.0,-100.00,NW,324,10.0,19.0,58,0.00,,,0.10,968.000000,,2013-08-26 20:11:00,
2013-08-26 13:21:00,88.0,71.0,-100.00,NW,324,10.0,19.0,58,0.00,,,0.10,968.000000,,2013-08-26 20:21:00,
2013-08-26 13:32:00,88.0,71.0,-100.00,NW,324,10.0,19.0,58,0.00,,,0.10,968.000000,,2013-08-26 20:32:00,
2013-08-26 13:42:00,88.0,71.0,-100.00,NW,324,10.0,19.0,58,0.00,,,0.10,968.000000,,2013-08-26 20:42:00,
2013-08-26 14:11:00,91.0,69.0,-100.00,NNW,334,10.0,17.0,48,0.00,,,0.10,958.000000,,2013-08-26 21:11:00,
2013-08-26 14:22:00,91.0,69.0,-100.00,NNW,334,10.0,17.0,48,0.00,,,0.10,958.000000,,2013-08-26 21:22:00,
2013-08-26 14:35:00,91.0,69.0,-100.00,NNW,334,10.0,17.0,48,0.00,,,0.10,958.000000,,2013-08-26 21:35:00,
2013-08-26 14:44:00,91.0,69.0,-100.00,NNW,334,10.0,17.0,48,0.00,,,0.10,958.000000,,2013-08-26 21:44:00,
2013-08-26 15:26:00,93.0,68.0,-100.00,NNW,338,10.0,16.0,45,0.00,,,0.10,878.000000,,2013-08-26 22:26:00,
2013-08-26 15:34:00,93.0,68.0,-100.00,NNW,338,10.0,16.0,45,0.00,,,0.10,878.000000,,2013-08-26 22:34:00,
2013-08-26 15:42:00,93.0,68.0,-100.00,NNW,338,10.0,16.0,45,0.00,,,0.10,878.000000,,2013-08-26 22:42:00,
2013-08-26 16:12:00,94.0,68.0,-100.00,North,7,10.0,16.0,43,0.00,,,0.10,735.000000,,2013-08-26 23:12:00,
2013-08-26 16:22:00,94.0,68.0,-100.00,North,7,10.0,16.0,43,0.00,,,0.10,735.000000,,2013-08-26 23:22:00,
2013-08-26 16:34:00,94.0,68.0,-100.00,North,7,10.0,16.0,43,0.00,,,0.10,735.000000,,2013-08-26 23:34:00,
2013-08-26 16:42:00,94.0,68.0,-100.00,North,7,10.0,16.0,43,0.00,,,0.10,735.000000,,2013-08-26 23:42:00,
2013-08-26 17:11:00,94.0,68.0,-100.00,NNW,330,8.0,16.0,43,0.00,,,0.10,503.000000,,2013-08-27 00:11:00,
2013-08-26 17:21:00,94.0,68.0,-100.00,NNW,330,8.0,16.0,43,0.00,,,0.10,503.000000,,2013-08-27 00:21:00,
2013-08-26 17:32:00,94.0,68.0,-100.00,NNW,330,8.0,16.0,43,0.00,,,0.10,503.000000,,2013-08-27 00:32:00,
2013-08-26 17:42:00,94.0,68.0,-100.00,NNW,330,8.0,16.0,43,0.00,,,0.10,503.000000,,2013-08-27 00:42:00,
2013-08-26 18:12:00,92.0,67.0,-100.00,NW,321,8.0,15.0,44,0.00,,,0.10,209.000000,,2013-08-27 01:12:00,
2013-08-26 18:21:00,92.0,67.0,-100.00,NW,321,8.0,15.0,44,0.00,,,0.10,209.000000,,2013-08-27 01:21:00,
2013-08-26 18:32:00,92.0,67.0,-100.00,NW,321,8.0,15.0,44,0.00,,,0.10,209.000000,,2013-08-27 01:32:00,
2013-08-26 18:42:00,92.0,67.0,-100.00,NW,321,8.0,15.0,44,0.00,,,0.10,209.000000,,2013-08-27 01:42:00,
2013-08-26 19:12:00,91.0,67.0,-100.00,NW,311,7.0,13.0,46,0.00,,,0.10,139.000000,,2013-08-27 02:12:00,
2013-08-26 19:21:00,91.0,67.0,-100.00,NW,311,7.0,13.0,46,0.00,,,0.10,139.000000,,2013-08-27 02:21:00,
2013-08-26 19:32:00,91.0,67.0,-100.00,NW,311,7.0,13.0,46,0.00,,,0.10,139.000000,,2013-08-27 02:32:00,
2013-08-26 19:42:00,91.0,67.0,-100.00,NW,311,7.0,13.0,46,0.00,,,0.10,139.000000,,2013-08-27 02:42:00,
2013-08-26 20:12:00,87.0,67.0,-100.00,NW,319,5.0,11.0,52,0.00,,,0.10,8.000000,,2013-08-27 03:12:00,
2013-08-26 20:22:00,87.0,67.0,-100.00,NW,319,5.0,11.0,52,0.00,,,0.10,8.000000,,2013-08-27 03:22:00,
2013-08-26 20:36:00,87.0,67.0,-100.00,NW,319,5.0,11.0,52,0.00,,,0.10,8.000000,,2013-08-27 03:36:00,
2013-08-26 20:44:00,87.0,67.0,-100.00,NW,319,5.0,11.0,52,0.00,,,0.10,8.000000,,2013-08-27 03:44:00,
2013-08-26 21:18:00,86.0,67.0,-100.00,NW,319,5.0,9.0,54,0.00,,,0.10,0.000000,,2013-08-27 04:18:00,
2013-08-26 21:29:00,86.0,67.0,-100.00,NW,319,5.0,9.0,54,0.00,,,0.10,0.000000,,2013-08-27 04:29:00,
2013-08-26 21:38:00,86.0,67.0,-100.00,NW,319,5.0,9.0,54,0.00,,,0.10,0.000000,,2013-08-27 04:38:00,
2013-08-26 21:46:00,86.0,67.0,-100.00,NW,319,5.0,9.0,54,0.00,,,0.10,0.000000,,2013-08-27 04:46:00,
2013-08-26 22:13:00,84.0,69.0,-100.00,NE,36,3.0,7.0,61,0.00,,,0.10,0.000000,,2013-08-27 05:13:00,
2013-08-26 22:23:00,84.0,69.0,-100.00,NE,36,3.0,7.0,61,0.00,,,0.10,0.000000,,2013-08-27 05:23:00,
2013-08-26 22:34:00,84.0,69.0,-100.00,NE,36,3.0,7.0,61,0.00,,,0.10,0.000000,,2013-08-27 05:34:00,
2013-08-26 22:43:00,84.0,69.0,-100.00,NE,36,3.0,7.0,61,0.00,,,0.10,0.000000,,2013-08-27 05:43:00,
2013-08-26 23:12:00,84.0,69.0,-100.00,NNE,24,6.0,9.0,60,0.00,,,0.10,0.000000,,2013-08-27 06:12:00,
2013-08-26 23:21:00,84.0,69.0,-100.00,NNE,24,6.0,9.0,60,0.00,,,0.10,0.000000,,2013-08-27 06:21:00,
2013-08-26 23:32:00,84.0,69.0,-100.00,NNE,24,6.0,9.0,60,0.00,,,0.10,0.000000,,2013-08-27 06:32:00,
2013-08-26 23:42:00,84.0,69.0,-100.00,NNE,24,6.0,9.0,60,0.00,,,0.10,0.000000,,2013-08-27 06:42:00,